星链-2264 (STARLINK-2264 )

导读

STARLINK-2264是美国太空探索技术公司(SpaceX)在2021年3月24日发射的星链(Starlink)1.0版本卫星,归属星链低轨互联网星座。星链星座旨在为全球提供高速、低时延的卫星互联网接入服务,填补偏远地区网络覆盖盲区。该卫星运行在近地轨道,通过与地面终端协同通信,为全球多地用户提供宽带互联网服务,是星链星座实现全球组网的重要组成部分,助力太空互联网基础设施持续扩容。

Basic Information
目录编号:
48028
目录名称:
STARLINK-2264
国际标识:
2021-024BD
轨道中心:
EARTH
卫星名称:
星链-2264
卫星全名:
星链-2264 (STARLINK-2264 )
卫星状态:
已陨落 最后检测时间 2025-05-02
发射日期:
2021-03-24 UTC
国别 :
美国 (US)
星等 :
--
Orbit Information
数据来源 国际轨道数据
星历时间: 2025-05-02T10:10:31+0800
轨道信息已过期412天
半长轴: 6539.67km
偏心率: 0.0006153
轨道倾角: 53.027°
近地点辐角 353.608°
升交点赤经 197.194°
平近点角 75.392°
近地点: 157.511km
远地点: 165.559km
周期: 87.719分钟
每日圈数: 16.416064
Detailed Information
固有亮度:
5
最大亮度:
2.5
卫星平台:
Starlink V1.0
覆盖范围:
全球
运营商:
太空探索技术公司
运营商所在国:
美国
制造商(研发单位):
太空探索技术公司
制造商所在国:
美国
使用方式:
暂无
Satellite Introduction
星链(Starlink)计划是由太空探索技术公司(SpaceX)提出的一个巨型低轨卫星互联网星座项目,计划在2019年至2024年间在太空搭建由约1.2万颗卫星组成的“星链”网络,其中1584颗将部署在地球上空550千米处的近地轨道,并从2020年开始工作。该卫星仍在工作。